AFL1998 URMM-UWWW

Flight info

Callsign AFL1998
Flight time 1h 38m
Altitude 32000
Route LARIN5M LARIN G481 NIRGA R807 UROBO P135 TUNIG TUNIG2A
Aircraft A320/H-V/N

Departure

Time 2026-04-15 10:18
Airport Mineralnye Vody Airport (URMM)

Arrival

Time 2026-04-15 11:56
Airport Kurumoch International Airport (UWWW)
Time Latitude Longitude Altitude Speed Heading
2026-04-15 10:01 44.21817 43.08900 1051 ft 0 kts 212°
2026-04-15 10:09 44.21825 43.08907 1051 ft 4 kts 211°
2026-04-15 10:10 44.21848 43.08926 1051 ft 4 kts 208°
2026-04-15 10:10 44.21866 43.08938 1051 ft 2 kts 191°
2026-04-15 10:10 44.21877 43.08940 1054 ft 2 kts 157°
2026-04-15 10:10 44.21886 43.08932 1053 ft 2 kts 130°
2026-04-15 10:11 44.21893 43.08920 1051 ft 2 kts 124°
2026-04-15 10:11 44.21897 43.08911 1051 ft 0 kts 123°
2026-04-15 10:12 44.21898 43.08911 1051 ft 0 kts 123°
2026-04-15 10:13 44.21897 43.08912 1051 ft 0 kts 123°
2026-04-15 10:13 44.21886 43.08936 1052 ft 11 kts 122°
2026-04-15 10:13 44.21844 43.09027 1051 ft 10 kts 124°
2026-04-15 10:14 44.21805 43.09100 1051 ft 9 kts 122°
2026-04-15 10:14 44.21756 43.09208 1051 ft 18 kts 122°
2026-04-15 10:14 44.21695 43.09318 1051 ft 13 kts 135°
2026-04-15 10:14 44.21646 43.09409 1051 ft 11 kts 122°
2026-04-15 10:15 44.21608 43.09491 1051 ft 9 kts 122°
2026-04-15 10:15 44.21569 43.09578 1051 ft 11 kts 122°
2026-04-15 10:15 44.21532 43.09659 1051 ft 9 kts 122°
2026-04-15 10:15 44.21511 43.09750 1051 ft 17 kts 89°
2026-04-15 10:16 44.21537 43.09924 1051 ft 17 kts 77°
2026-04-15 10:16 44.21563 43.10078 1051 ft 15 kts 77°
2026-04-15 10:16 44.21592 43.10203 1053 ft 12 kts 51°
2026-04-15 10:16 44.21658 43.10270 1050 ft 11 kts 33°
2026-04-15 10:17 44.21720 43.10322 1051 ft 9 kts 23°
2026-04-15 10:17 44.21762 43.10314 1052 ft 4 kts 322°
2026-04-15 10:17 44.21776 43.10288 1052 ft 6 kts 304°
2026-04-15 10:17 44.21920 43.09972 1055 ft 78 kts 302°
2026-04-15 10:18 44.22337 43.09047 1054 ft 144 kts 301°
2026-04-15 10:18 44.22919 43.07687 1286 ft 178 kts 300°
2026-04-15 10:18 44.23645 43.06098 1615 ft 211 kts 301°
2026-04-15 10:18 44.24501 43.04226 2012 ft 246 kts 300°
2026-04-15 10:19 44.25466 43.02093 2544 ft 274 kts 300°
2026-04-15 10:19 44.26518 42.99765 3009 ft 282 kts 301°
2026-04-15 10:19 44.27502 42.97595 3463 ft 250 kts 301°
2026-04-15 10:19 44.28447 42.95500 3923 ft 265 kts 300°
2026-04-15 10:20 44.29438 42.93301 4388 ft 270 kts 301°
2026-04-15 10:20 44.30714 42.91374 4847 ft 278 kts 326°
2026-04-15 10:20 44.32597 42.90657 5324 ft 291 kts 356°
2026-04-15 10:20 44.34614 42.91111 5796 ft 298 kts 12°
2026-04-15 10:21 44.36593 42.92066 6268 ft 303 kts 17°
2026-04-15 10:21 44.38560 42.93149 6760 ft 304 kts 17°
2026-04-15 10:21 44.40578 42.94211 7269 ft 316 kts 15°
2026-04-15 10:21 44.42692 42.95214 7780 ft 326 kts 13°
2026-04-15 10:22 44.44876 42.96151 8292 ft 330 kts 12°
2026-04-15 10:22 44.47097 42.97036 8824 ft 333 kts 11°
2026-04-15 10:22 44.49336 42.97885 9361 ft 335 kts 11°
2026-04-15 10:22 44.51599 42.98726 9902 ft 337 kts 11°
2026-04-15 10:23 44.53877 42.99572 10418 ft 340 kts 11°
2026-04-15 10:23 44.56171 43.00429 10911 ft 343 kts 11°
2026-04-15 10:23 44.58483 43.01298 11421 ft 345 kts 12°
2026-04-15 10:23 44.60743 43.02489 11932 ft 351 kts 24°
2026-04-15 10:24 44.62885 43.04192 12458 ft 355 kts 26°
2026-04-15 10:24 44.65002 43.05914 12986 ft 357 kts 27°
2026-04-15 10:24 44.67159 43.07668 13523 ft 360 kts 27°
2026-04-15 10:24 44.69330 43.09433 14068 ft 362 kts 27°
2026-04-15 10:25 44.71520 43.11215 14555 ft 365 kts 27°
2026-04-15 10:25 44.73724 43.13007 15051 ft 368 kts 28°
2026-04-15 10:25 44.75945 43.14815 15550 ft 371 kts 28°
2026-04-15 10:25 44.78186 43.16643 16063 ft 373 kts 28°
2026-04-15 10:26 44.80444 43.18488 16580 ft 377 kts 28°
2026-04-15 10:26 44.82718 43.20350 17110 ft 380 kts 29°
2026-04-15 10:26 44.85009 43.22233 17652 ft 383 kts 29°
2026-04-15 10:26 44.87320 43.24130 18197 ft 386 kts 30°
2026-04-15 10:27 44.89653 43.26040 18715 ft 389 kts 30°
2026-04-15 10:27 44.91997 43.27956 19202 ft 391 kts 30°
2026-04-15 10:27 44.94361 43.29891 19697 ft 393 kts 31°
2026-04-15 10:27 44.96733 43.31838 20197 ft 396 kts 31°
2026-04-15 10:28 44.99117 43.33798 20704 ft 397 kts 32°
2026-04-15 10:28 45.01509 43.35768 21228 ft 399 kts 32°
2026-04-15 10:28 45.03908 43.37747 21750 ft 400 kts 32°
2026-04-15 10:28 45.06316 43.39734 22284 ft 401 kts 31°
2026-04-15 10:29 45.08860 43.41380 22831 ft 404 kts 20°
2026-04-15 10:29 45.11581 43.42393 23387 ft 405 kts 12°
2026-04-15 10:29 45.14347 43.43140 23921 ft 405 kts 12°
2026-04-15 10:29 45.17080 43.43883 24384 ft 405 kts 12°
2026-04-15 10:30 45.19846 43.44640 24869 ft 404 kts 12°
2026-04-15 10:30 45.22603 43.45399 25343 ft 404 kts 12°
2026-04-15 10:30 45.25358 43.46161 25853 ft 402 kts 13°
2026-04-15 10:30 45.28102 43.46922 26357 ft 401 kts 13°
2026-04-15 10:31 45.30833 43.47679 26806 ft 402 kts 13°
2026-04-15 10:31 45.33605 43.48446 26971 ft 410 kts 13°
2026-04-15 10:31 45.36427 43.49225 27189 ft 416 kts 13°
2026-04-15 10:31 45.39283 43.50014 27405 ft 421 kts 13°
2026-04-15 10:32 45.42184 43.50819 27610 ft 426 kts 13°
2026-04-15 10:32 45.45112 43.51633 27826 ft 431 kts 13°
2026-04-15 10:32 45.48069 43.52452 28051 ft 435 kts 13°
2026-04-15 10:32 45.51060 43.53282 28272 ft 440 kts 13°
2026-04-15 10:33 45.54076 43.54125 28495 ft 443 kts 13°
2026-04-15 10:33 45.57118 43.54976 28711 ft 447 kts 13°
2026-04-15 10:33 45.60179 43.55832 28947 ft 450 kts 13°
2026-04-15 10:33 45.62218 43.56402 29087 ft 452 kts 13°
2026-04-15 10:34 45.65313 43.57267 29314 ft 455 kts 13°
2026-04-15 10:34 45.68432 43.58140 29542 ft 457 kts 13°
2026-04-15 10:34 45.71561 43.59021 29773 ft 459 kts 13°
2026-04-15 10:34 45.74701 43.59909 30009 ft 461 kts 13°
2026-04-15 10:35 45.77858 43.60805 30231 ft 463 kts 13°
2026-04-15 10:35 45.82048 43.61988 30489 ft 465 kts 13°
2026-04-15 10:35 45.84195 43.62593 30625 ft 465 kts 13°
2026-04-15 10:35 45.87377 43.63493 30818 ft 466 kts 13°
2026-04-15 10:36 45.90560 43.64394 31012 ft 467 kts 13°
2026-04-15 10:36 45.93753 43.65298 31203 ft 468 kts 13°
2026-04-15 10:36 45.96911 43.66196 31405 ft 469 kts 13°
2026-04-15 10:36 46.00109 43.67105 31604 ft 469 kts 13°
2026-04-15 10:37 46.03305 43.68059 31803 ft 469 kts 14°
2026-04-15 10:37 46.06494 43.69096 31998 ft 469 kts 15°
2026-04-15 10:37 46.09674 43.70183 32148 ft 470 kts 15°
2026-04-15 10:38 46.16041 43.72395 32155 ft 471 kts 15°
2026-04-15 10:38 46.22431 43.74571 32161 ft 472 kts 15°
2026-04-15 10:39 46.28833 43.76706 32151 ft 472 kts 15°
2026-04-15 10:39 46.35240 43.78849 32159 ft 474 kts 15°
2026-04-15 10:39 46.38449 43.79928 32272 ft 473 kts 15°
2026-04-15 10:40 46.41654 43.81010 32385 ft 473 kts 15°
2026-04-15 10:40 46.44858 43.82096 32528 ft 473 kts 15°
2026-04-15 10:40 46.48060 43.83186 32662 ft 473 kts 15°
2026-04-15 10:40 46.51266 43.84273 32787 ft 473 kts 15°
2026-04-15 10:41 46.54469 43.85360 32922 ft 473 kts 15°
2026-04-15 10:41 46.57671 43.86448 33042 ft 473 kts 15°
2026-04-15 10:41 46.60871 43.87538 33188 ft 473 kts 15°
2026-04-15 10:41 46.64072 43.88629 33323 ft 473 kts 15°
2026-04-15 10:42 46.67272 43.89722 33457 ft 473 kts 15°
2026-04-15 10:42 46.70473 43.90820 33592 ft 472 kts 15°
2026-04-15 10:42 46.73668 43.91920 33717 ft 473 kts 15°
2026-04-15 10:43 46.80052 43.94111 33554 ft 477 kts 15°
2026-04-15 10:43 46.86523 43.96336 33397 ft 478 kts 15°
2026-04-15 10:44 46.92988 43.98560 33233 ft 477 kts 15°
2026-04-15 10:44 46.99449 44.00784 33077 ft 476 kts 15°
2026-04-15 10:45 47.05893 44.03019 32914 ft 475 kts 15°
2026-04-15 10:45 47.12323 44.05274 32758 ft 474 kts 15°
2026-04-15 10:45 47.15538 44.06403 32331 ft 473 kts 15°
2026-04-15 10:46 47.18708 44.07517 32122 ft 466 kts 15°
2026-04-15 10:46 47.24974 44.09723 32136 ft 462 kts 15°
2026-04-15 10:47 47.31227 44.11935 32135 ft 462 kts 15°
2026-04-15 10:47 47.37477 44.14149 32133 ft 462 kts 15°
2026-04-15 10:48 47.43684 44.16349 32131 ft 462 kts 15°
2026-04-15 10:48 47.49927 44.18570 32134 ft 461 kts 15°
2026-04-15 10:49 47.56169 44.20789 32129 ft 461 kts 15°
2026-04-15 10:49 47.62405 44.23021 32132 ft 461 kts 15°
2026-04-15 10:50 47.68637 44.25252 32129 ft 460 kts 15°
2026-04-15 10:50 47.74864 44.27485 32128 ft 460 kts 15°
2026-04-15 10:51 47.81078 44.29716 32127 ft 459 kts 15°
2026-04-15 10:51 47.87292 44.31956 32124 ft 459 kts 15°
2026-04-15 10:52 47.93491 44.34212 32125 ft 458 kts 16°
2026-04-15 10:52 47.99591 44.36922 32128 ft 457 kts 20°
2026-04-15 10:53 48.05572 44.39970 32126 ft 456 kts 20°
2026-04-15 10:53 48.11587 44.43010 32121 ft 456 kts 20°
2026-04-15 10:54 48.17622 44.45940 32124 ft 456 kts 19°
2026-04-15 10:54 48.23656 44.48832 32123 ft 455 kts 19°
2026-04-15 10:55 48.29679 44.51744 32118 ft 455 kts 19°
2026-04-15 10:55 48.35695 44.54672 32123 ft 454 kts 19°
2026-04-15 10:56 48.41706 44.57613 32119 ft 454 kts 19°
2026-04-15 10:56 48.47715 44.60564 32114 ft 454 kts 20°
2026-04-15 10:57 48.53712 44.63521 32113 ft 453 kts 19°
2026-04-15 10:57 48.62662 44.67933 32113 ft 453 kts 20°
2026-04-15 10:58 48.68656 44.70900 32111 ft 453 kts 20°
2026-04-15 10:58 48.74638 44.73885 32111 ft 453 kts 20°
2026-04-15 10:59 48.80625 44.76879 32114 ft 453 kts 20°
2026-04-15 10:59 48.86623 44.79791 32112 ft 453 kts 18°
2026-04-15 11:00 48.92703 44.82341 32108 ft 453 kts 16°
2026-04-15 11:00 48.98797 44.84776 32102 ft 453 kts 17°
2026-04-15 11:01 49.04875 44.87283 32101 ft 452 kts 17°
2026-04-15 11:01 49.10935 44.89856 32099 ft 452 kts 17°
2026-04-15 11:02 49.16986 44.92447 32098 ft 451 kts 17°
2026-04-15 11:02 49.23030 44.95023 32098 ft 450 kts 17°
2026-04-15 11:03 49.29026 44.97574 32094 ft 450 kts 17°
2026-04-15 11:03 49.35085 45.00158 32095 ft 449 kts 17°
2026-04-15 11:04 49.41055 45.02722 32093 ft 448 kts 17°
2026-04-15 11:04 49.47062 45.05300 32093 ft 448 kts 17°
2026-04-15 11:05 49.53061 45.07877 32090 ft 447 kts 17°
2026-04-15 11:05 49.59039 45.10456 32088 ft 446 kts 17°
2026-04-15 11:06 49.65011 45.13037 32087 ft 445 kts 17°
2026-04-15 11:06 49.70976 45.15630 32086 ft 445 kts 17°
2026-04-15 11:07 49.76931 45.18249 32084 ft 445 kts 17°
2026-04-15 11:07 49.82887 45.20869 32084 ft 445 kts 17°
2026-04-15 11:08 49.88845 45.23485 32079 ft 445 kts 17°
2026-04-15 11:08 49.94799 45.26106 32078 ft 444 kts 17°
2026-04-15 11:09 50.00743 45.28737 32076 ft 444 kts 17°
2026-04-15 11:09 50.06741 45.31101 32075 ft 445 kts 14°
2026-04-15 11:10 50.12807 45.33066 32073 ft 445 kts 13°
2026-04-15 11:10 50.18875 45.34990 32072 ft 445 kts 13°
2026-04-15 11:11 50.24887 45.37005 32067 ft 445 kts 14°
2026-04-15 11:11 50.30926 45.39110 32070 ft 445 kts 14°
2026-04-15 11:12 50.36972 45.41206 32072 ft 445 kts 14°
2026-04-15 11:12 50.43022 45.43283 32065 ft 445 kts 14°
2026-04-15 11:13 50.49070 45.45354 32067 ft 445 kts 14°
2026-04-15 11:13 50.55124 45.47445 32063 ft 445 kts 14°
2026-04-15 11:14 50.61171 45.49546 32060 ft 445 kts 14°
2026-04-15 11:14 50.67219 45.51656 32061 ft 446 kts 14°
2026-04-15 11:15 50.73281 45.53767 32057 ft 446 kts 14°
2026-04-15 11:15 50.79341 45.55891 32054 ft 447 kts 14°
2026-04-15 11:16 50.85407 45.58040 32056 ft 447 kts 14°
2026-04-15 11:16 50.91473 45.60224 32052 ft 447 kts 14°
2026-04-15 11:17 50.97503 45.62401 32051 ft 447 kts 14°
2026-04-15 11:17 51.03564 45.64866 32047 ft 446 kts 22°
2026-04-15 11:18 51.09165 45.68934 32050 ft 446 kts 26°
2026-04-15 11:18 51.14779 45.73148 32047 ft 447 kts 26°
2026-04-15 11:19 51.20404 45.77368 32043 ft 447 kts 26°
2026-04-15 11:19 51.26017 45.81599 32041 ft 447 kts 26°
2026-04-15 11:20 51.31637 45.85842 32041 ft 446 kts 26°
2026-04-15 11:20 51.37254 45.90088 32037 ft 446 kts 26°
2026-04-15 11:21 51.42868 45.94350 32038 ft 447 kts 26°
2026-04-15 11:21 51.48480 45.98639 32033 ft 447 kts 26°
2026-04-15 11:22 51.54092 46.02934 32035 ft 447 kts 27°
2026-04-15 11:22 51.59164 46.08594 32037 ft 444 kts 42°
2026-04-15 11:23 51.63836 46.15102 32036 ft 444 kts 42°
2026-04-15 11:23 51.68486 46.21558 32035 ft 444 kts 41°
2026-04-15 11:24 51.73167 46.28068 32037 ft 444 kts 41°
2026-04-15 11:24 51.77838 46.34599 32036 ft 444 kts 41°
2026-04-15 11:25 51.82304 46.41459 32034 ft 443 kts 52°
2026-04-15 11:25 51.86082 46.49323 32035 ft 443 kts 53°
2026-04-15 11:26 51.89250 46.55904 32032 ft 443 kts 52°
2026-04-15 11:26 51.93031 46.63785 32033 ft 443 kts 52°
2026-04-15 11:27 51.96801 46.71671 32034 ft 443 kts 52°
2026-04-15 11:27 52.00573 46.79582 32036 ft 443 kts 52°
2026-04-15 11:28 52.04334 46.87501 32041 ft 443 kts 52°
2026-04-15 11:28 52.08063 46.95377 32040 ft 443 kts 52°
2026-04-15 11:29 52.11817 47.03311 32040 ft 443 kts 52°
2026-04-15 11:29 52.15562 47.11272 32044 ft 443 kts 52°
2026-04-15 11:30 52.19296 47.19253 32044 ft 443 kts 52°
2026-04-15 11:30 52.23026 47.27246 32046 ft 443 kts 52°
2026-04-15 11:31 52.26751 47.35241 31819 ft 441 kts 52°
2026-04-15 11:31 52.28598 47.39216 31684 ft 440 kts 51°
2026-04-15 11:31 52.30446 47.43198 31563 ft 439 kts 51°
2026-04-15 11:32 52.32286 47.47165 31434 ft 437 kts 51°
2026-04-15 11:32 52.34119 47.51129 31313 ft 436 kts 51°
2026-04-15 11:32 52.35944 47.55088 31184 ft 435 kts 51°
2026-04-15 11:32 52.37759 47.59042 31039 ft 434 kts 51°
2026-04-15 11:33 52.39570 47.62983 30868 ft 432 kts 51°
2026-04-15 11:33 52.41379 47.66908 30726 ft 431 kts 51°
2026-04-15 11:33 52.43182 47.70826 30495 ft 430 kts 51°
2026-04-15 11:33 52.44972 47.74726 30321 ft 428 kts 51°
2026-04-15 11:34 52.46751 47.78619 30198 ft 424 kts 50°
2026-04-15 11:34 52.48489 47.82432 30065 ft 410 kts 51°
2026-04-15 11:34 52.50170 47.86127 29922 ft 398 kts 50°
2026-04-15 11:34 52.51799 47.89707 29777 ft 386 kts 51°
2026-04-15 11:35 52.53394 47.93216 29635 ft 382 kts 51°
2026-04-15 11:35 52.54956 47.96661 29495 ft 380 kts 51°
2026-04-15 11:35 52.56557 48.00194 29356 ft 386 kts 51°
2026-04-15 11:35 52.58194 48.03799 29217 ft 399 kts 51°
2026-04-15 11:36 52.59839 48.07425 29083 ft 403 kts 51°
2026-04-15 11:36 52.61512 48.11130 28929 ft 404 kts 51°
2026-04-15 11:36 52.63188 48.14843 28785 ft 403 kts 51°
2026-04-15 11:36 52.64855 48.18536 28586 ft 401 kts 51°
2026-04-15 11:37 52.66521 48.22230 28447 ft 401 kts 51°
2026-04-15 11:37 52.68179 48.25917 28299 ft 400 kts 51°
2026-04-15 11:37 52.69829 48.29595 27871 ft 398 kts 51°
2026-04-15 11:37 52.71465 48.33258 27521 ft 394 kts 52°
2026-04-15 11:38 52.73084 48.36890 27192 ft 392 kts 51°
2026-04-15 11:38 52.74694 48.40500 26842 ft 389 kts 51°
2026-04-15 11:38 52.76292 48.44086 26510 ft 387 kts 51°
2026-04-15 11:38 52.77888 48.47671 26040 ft 387 kts 52°
2026-04-15 11:39 52.79476 48.51239 25589 ft 383 kts 51°
2026-04-15 11:39 52.81049 48.54778 25121 ft 381 kts 52°
2026-04-15 11:39 52.82612 48.58304 24662 ft 379 kts 52°
2026-04-15 11:39 52.84166 48.61810 24210 ft 377 kts 52°
2026-04-15 11:40 52.85710 48.65295 23765 ft 374 kts 52°
2026-04-15 11:40 52.87244 48.68764 23257 ft 372 kts 53°
2026-04-15 11:40 52.88749 48.72176 22740 ft 370 kts 53°
2026-04-15 11:40 52.90263 48.75614 22238 ft 369 kts 53°
2026-04-15 11:41 52.91767 48.79037 21724 ft 367 kts 53°
2026-04-15 11:41 52.93265 48.82448 21254 ft 364 kts 53°
2026-04-15 11:41 52.94755 48.85836 20751 ft 363 kts 53°
2026-04-15 11:41 52.96239 48.89220 20220 ft 363 kts 54°
2026-04-15 11:42 52.97720 48.92609 19708 ft 363 kts 54°
2026-04-15 11:42 52.99197 48.95994 19185 ft 362 kts 54°
2026-04-15 11:42 53.00672 48.99378 18656 ft 362 kts 54°
2026-04-15 11:42 53.02148 49.02775 18071 ft 363 kts 54°
2026-04-15 11:43 53.03627 49.06183 17439 ft 364 kts 54°
2026-04-15 11:43 53.05104 49.09593 16838 ft 364 kts 54°
2026-04-15 11:43 53.06587 49.13015 16239 ft 364 kts 54°
2026-04-15 11:43 53.08038 49.16468 15646 ft 364 kts 59°
2026-04-15 11:44 53.09049 49.20319 15079 ft 365 kts 72°
2026-04-15 11:44 53.09783 49.24368 14462 ft 365 kts 72°
2026-04-15 11:44 53.10514 49.28415 13864 ft 366 kts 72°
2026-04-15 11:44 53.11248 49.32468 13196 ft 366 kts 72°
2026-04-15 11:45 53.11982 49.36526 12543 ft 365 kts 72°
2026-04-15 11:45 53.12710 49.40567 11904 ft 364 kts 72°
2026-04-15 11:45 53.13431 49.44592 11280 ft 361 kts 72°
2026-04-15 11:45 53.14142 49.48579 10777 ft 356 kts 72°
2026-04-15 11:46 53.14835 49.52480 10409 ft 347 kts 72°
2026-04-15 11:46 53.15512 49.56282 10049 ft 338 kts 72°
2026-04-15 11:46 53.16174 49.59997 9659 ft 331 kts 72°
2026-04-15 11:46 53.16811 49.63582 9270 ft 323 kts 72°
2026-04-15 11:47 53.17445 49.67138 8869 ft 317 kts 72°
2026-04-15 11:47 53.18104 49.70596 8495 ft 310 kts 66°
2026-04-15 11:47 53.19172 49.73634 8159 ft 301 kts 50°
2026-04-15 11:47 53.20590 49.76190 7733 ft 298 kts 46°
2026-04-15 11:48 53.22016 49.78674 7315 ft 296 kts 46°
2026-04-15 11:48 53.23434 49.81146 6865 ft 294 kts 45°
2026-04-15 11:48 53.24848 49.83611 6402 ft 293 kts 46°
2026-04-15 11:48 53.26243 49.86045 6120 ft 285 kts 46°
2026-04-15 11:49 53.27580 49.88382 6086 ft 269 kts 46°
2026-04-15 11:49 53.28823 49.90567 6101 ft 251 kts 46°
2026-04-15 11:49 53.29985 49.92612 6101 ft 235 kts 46°
2026-04-15 11:49 53.31072 49.94524 6099 ft 219 kts 46°
2026-04-15 11:50 53.32085 49.96306 6103 ft 203 kts 46°
2026-04-15 11:50 53.33020 49.97953 6101 ft 188 kts 46°
2026-04-15 11:50 53.33927 49.99462 5880 ft 186 kts 37°
2026-04-15 11:50 53.35157 49.99956 5545 ft 192 kts 352°
2026-04-15 11:51 53.36396 49.99066 5205 ft 195 kts 337°
2026-04-15 11:51 53.37545 49.97902 4896 ft 189 kts 334°
2026-04-15 11:51 53.38638 49.96726 4575 ft 185 kts 333°
2026-04-15 11:51 53.39710 49.95577 4243 ft 182 kts 334°
2026-04-15 11:52 53.40807 49.94891 3880 ft 157 kts 12°
2026-04-15 11:52 53.41609 49.95831 3563 ft 145 kts 67°
2026-04-15 11:52 53.41814 49.97536 3263 ft 151 kts 77°
2026-04-15 11:52 53.41987 49.99275 2931 ft 150 kts 73°
2026-04-15 11:53 53.42431 50.00805 2891 ft 145 kts 48°
2026-04-15 11:53 53.43233 50.01812 2832 ft 145 kts 28°
2026-04-15 11:53 53.44180 50.02397 2800 ft 144 kts 20°
2026-04-15 11:53 53.45143 50.02777 2760 ft 141 kts 14°
2026-04-15 11:54 53.46094 50.03085 2649 ft 138 kts 24°
2026-04-15 11:54 53.46830 50.04034 2423 ft 134 kts 54°
2026-04-15 11:54 53.47218 50.05475 2082 ft 138 kts 64°
2026-04-15 11:54 53.47620 50.06907 1793 ft 133 kts 59°
2026-04-15 11:55 53.48071 50.08262 1474 ft 135 kts 55°
2026-04-15 11:55 53.48562 50.09624 1194 ft 139 kts 60°
2026-04-15 11:55 53.49026 50.11012 927 ft 138 kts 62°
2026-04-15 11:55 53.49482 50.12467 700 ft 142 kts 59°
2026-04-15 11:56 53.49970 50.13907 479 ft 136 kts 60°
2026-04-15 11:56 53.50340 50.15069 451 ft 65 kts 62°
2026-04-15 11:56 53.50537 50.15650 451 ft 52 kts 60°
2026-04-15 11:56 53.50699 50.16130 449 ft 41 kts 61°
2026-04-15 11:57 53.50818 50.16492 449 ft 29 kts 61°
2026-04-15 11:57 53.50973 50.16679 447 ft 14 kts 302°
2026-04-15 11:57 53.51021 50.16549 447 ft 12 kts 301°
2026-04-15 11:58 53.51035 50.16512 447 ft 0 kts 301°
2026-04-15 11:59 53.51037 50.16507 447 ft 4 kts 301°
2026-04-15 11:59 53.51074 50.16401 447 ft 11 kts 302°
2026-04-15 11:59 53.51113 50.16297 447 ft 10 kts 302°
2026-04-15 11:59 53.51146 50.16207 447 ft 8 kts 300°
2026-04-15 12:00 53.51145 50.16124 447 ft 8 kts 247°
2026-04-15 12:00 53.51102 50.15983 447 ft 11 kts 242°
2026-04-15 12:00 53.51086 50.15882 447 ft 8 kts 290°
2026-04-15 12:00 53.51122 50.15832 447 ft 5 kts 330°
2026-04-15 12:01 53.51138 50.15818 447 ft 0 kts 332°